RH
11 11 11 11 10 9 7 7 7 7 8 9 9 9 9 9 8 8 7 6 7 7 7 6 6 5 5 5 4 4 5 6 6 6 7 9 9 10 10 13 17 18 20 29 34 33 34 36 42 47 51 59 68 73 76 76 76 78 78 77 75 77 81 79 75 74 77 77 75 74 72 70 68 65 62 59 57 56 53 51 48 48 47 44 39 39 40 37
10 10 10 10 10 9 8 7 6 6 7 8 8 9 9 9 9 8 8 7 7 7 7 6 6 5 5 5 4 4 4 5 5 6 7 10 10 8 9 12 15 16 20 29 32 31 32 35 41 45 50 59 66 72 76 75 75 77 75 74 79 80 80 79 76 74 76 78 76 75 74 72 71 66 62 59 58 57 53 50 48 47 44 42 39 40 39 36
11 11 10 10 9 9 8 8 7 6 6 7 8 9 9 9 9 9 9 8 8 7 7 7 6 5 5 5 4 4 4 5 7 9 10 10 9 8 9 11 14 15 18 26 29 27 28 32 38 41 49 58 64 71 74 73 74 76 74 75 78 77 76 78 78 76 76 78 77 76 76 75 73 68 64 62 59 55 53 49 47 46 43 38 38 39 38 35
14 13 13 11 11 10 9 9 8 7 7 7 7 8 9 10 10 9 9 9 8 8 7 7 6 5 5 4 5 4 5 8 11 13 11 9 9 8 8 11 12 13 19 26 26 25 26 31 36 38 47 55 60 69 72 70 73 74 74 74 72 72 73 74 76 77 76 76 77 78 76 75 72 70 67 62 58 54 52 49 45 44 41 37 37 37 36 34
14 14 13 13 12 12 11 10 10 9 9 9 9 9 10 10 11 11 10 9 9 9 9 7 6 5 4 4 5 4 6 10 11 11 10 8 9 8 8 11 11 12 20 25 24 24 26 30 33 36 46 55 57 65 70 69 71 72 72 71 69 68 70 69 74 77 76 77 77 77 76 74 72 71 66 62 64 59 51 47 43 42 41 38 37 35 34 34
13 13 13 13 13 12 12 11 10 10 10 10 10 10 10 10 10 11 11 10 10 9 10 8 6 4 4 5 4 4 8 12 12 11 8 7 8 7 8 12 11 12 18 21 22 24 25 28 31 33 43 54 54 60 69 68 69 71 68 66 66 65 64 66 71 75 76 77 77 76 76 74 72 70 63 62 66 60 51 46 40 40 40 39 38 35 34 34
12 12 12 13 13 13 12 11 11 11 10 11 11 11 11 11 11 11 12 12 11 10 10 9 6 5 5 4 4 5 8 13 14 11 7 5 7 7 9 12 12 11 14 17 20 22 24 26 28 29 36 48 51 55 66 69 68 70 68 65 64 62 62 62 66 72 75 78 77 76 76 74 73 72 65 63 62 56 51 46 40 38 38 39 39 36 34 34
12 12 12 12 13 13 12 12 12 11 10 10 10 10 11 11 11 11 11 12 12 11 11 9 7 6 5 4 6 7 7 10 12 11 7 4 6 7 9 12 12 13 12 14 17 18 21 23 24 26 30 42 48 51 62 69 67 67 67 64 62 60 59 58 61 69 74 77 78 77 76 75 74 74 68 64 60 55 53 47 42 39 38 39 40 37 35 35
13 13 13 13 12 13 13 12 12 11 11 11 11 10 10 10 11 10 11 11 12 12 11 10 7 7 5 4 7 7 8 10 11 11 9 5 5 7 11 13 14 16 13 13 13 15 18 20 22 24 27 37 44 48 59 67 66 65 64 61 59 57 56 57 60 68 75 75 77 77 76 75 74 74 70 65 59 55 53 48 44 42 40 40 39 39 37 36
13 13 13 12 13 13 13 12 12 11 11 11 11 10 10 10 10 10 10 11 11 12 11 10 8 8 6 6 8 8 9 10 10 12 11 7 6 9 13 14 15 17 14 11 12 14 16 18 21 23 26 32 39 48 57 64 65 64 64 59 55 56 56 58 63 69 74 75 77 78 76 75 74 74 72 67 60 55 54 50 47 44 43 40 38 39 38 37
14 13 13 12 12 12 12 12 11 11 11 12 11 10 10 10 10 10 10 10 11 11 11 9 10 9 8 7 10 12 12 11 11 12 13 9 8 11 15 14 16 17 15 12 11 13 15 18 20 22 28 31 37 46 55 61 63 63 63 59 56 57 56 58 65 70 73 76 77 77 76 75 74 74 73 68 62 57 54 52 49 46 45 43 38 38 38 38
14 13 13 12 12 12 12 11 11 11 11 12 11 11 11 10 10 10 9 10 10 10 9 10 12 12 12 11 11 13 13 12 11 13 15 12 11 13 14 14 16 18 16 12 11 11 14 17 19 24 30 32 37 44 51 59 61 61 62 59 58 61 61 59 64 71 73 76 76 76 78 75 74 75 73 68 63 61 56 53 51 48 47 44 40 38 38 38
13 13 12 12 11 11 12 11 11 10 11 12 12 11 11 10 10 10 10 10 9 9 9 12 14 14 17 14 10 11 14 14 12 15 17 15 13 13 13 15 17 18 17 13 11 11 13 16 18 24 28 32 39 42 48 57 60 60 59 59 57 60 64 61 64 72 74 77 77 77 78 75 74 74 71 69 64 63 61 55 50 49 47 43 40 38 37 37
12 11 11 10 10 10 10 10 10 10 11 12 12 12 11 11 11 10 9 9 9 10 11 13 15 16 19 17 12 11 14 15 14 16 19 18 16 14 13 13 16 18 18 14 11 12 13 15 18 22 25 30 37 39 45 55 59 58 57 58 54 56 65 62 63 73 76 78 76 76 79 76 76 74 70 69 66 63 64 59 51 48 46 43 40 38 36 36
10 10 9 9 9 8 9 9 9 10 10 11 12 12 11 11 12 10 9 10 11 10 11 13 15 18 19 17 14 12 13 16 17 18 20 20 19 17 15 14 15 18 19 15 12 12 13 15 16 20 25 28 31 37 44 51 56 56 57 59 54 53 62 61 60 70 77 77 74 79 83 77 75 73 69 70 68 65 65 62 54 49 46 43 41 39 36 35
10 10 10 9 8 7 8 9 9 9 10 11 12 12 11 12 12 11 11 12 12 11 11 14 16 18 21 20 17 16 16 18 20 20 20 21 20 19 18 16 14 17 20 17 13 12 12 14 15 20 27 29 29 36 44 48 52 55 56 57 54 50 58 62 59 63 72 73 71 80 83 75 73 72 69 71 70 67 66 64 57 51 48 45 42 40 37 35
11 11 10 10 8 8 8 8 8 9 10 11 11 11 11 12 13 14 14 13 14 12 12 16 17 19 22 21 20 20 19 18 19 21 21 21 20 19 18 18 16 16 19 19 14 11 12 14 15 19 27 31 32 36 42 48 52 55 54 52 50 49 55 64 62 60 64 69 73 78 78 75 72 70 69 70 70 68 67 66 61 54 51 48 44 41 39 37
12 12 11 10 8 8 7 8 8 8 10 11 11 11 11 13 13 16 17 15 16 15 14 15 17 21 21 19 23 23 18 16 17 19 20 20 20 19 18 18 17 17 18 20 16 12 13 13 14 20 27 31 34 35 39 47 49 53 53 49 48 51 55 63 66 62 61 68 76 77 77 75 72 68 69 69 68 68 68 68 65 58 54 52 47 43 41 39
12 11 10 9 8 8 8 8 8 9 11 12 12 11 11 13 14 17 18 17 17 17 17 17 17 24 22 18 22 21 17 16 16 18 19 19 19 19 19 19 18 17 18 20 17 12 13 15 18 26 30 31 32 33 38 44 45 49 52 50 48 50 53 58 62 61 61 69 75 76 76 74 72 71 68 68 68 68 69 69 68 62 57 55 52 47 43 41
12 10 10 10 9 8 8 9 9 10 12 14 12 12 13 13 15 19 19 19 17 15 17 17 19 27 25 20 20 18 17 16 16 19 20 19 19 19 19 19 18 17 17 20 19 13 12 17 22 25 27 29 30 33 37 39 38 40 45 48 49 48 49 50 53 56 60 69 72 71 72 71 71 72 68 66 66 66 67 68 69 66 61 58 55 51 48 45
11 11 10 10 9 10 9 9 10 11 14 14 13 13 14 13 16 20 20 18 16 13 14 15 20 25 23 21 21 19 18 17 17 19 21 20 19 21 22 20 19 19 19 20 20 15 14 18 21 21 25 28 31 34 35 35 35 36 39 45 51 49 46 45 46 48 55 66 67 63 65 65 65 69 66 61 61 61 62 63 66 67 66 63 59 56 53 49
11 11 11 10 10 11 11 10 11 13 15 15 14 15 15 14 16 18 19 19 16 14 14 16 23 24 21 22 21 19 19 18 17 19 20 20 19 22 24 22 22 21 20 21 21 18 16 17 19 21 25 27 30 33 34 35 36 36 37 42 50 48 46 47 46 45 52 62 64 58 57 56 56 61 60 54 54 57 58 59 61 63 66 67 64 61 57 52
12 13 12 12 11 12 13 12 12 13 15 16 17 17 16 16 16 18 21 22 18 15 16 20 25 24 22 23 21 21 21 17 16 17 17 19 19 21 23 22 22 22 21 21 21 20 17 17 21 25 26 26 27 30 33 35 35 36 36 39 44 45 46 48 47 46 49 56 60 55 51 49 50 54 54 48 47 52 55 58 59 61 65 67 68 67 62 55
14 15 14 14 12 13 14 14 13 14 16 17 17 17 17 16 19 21 22 22 20 18 20 24 25 24 23 23 22 22 21 18 17 16 14 17 19 18 20 22 22 22 22 23 21 20 20 21 26 28 26 24 25 27 30 33 34 35 36 38 42 43 45 44 43 45 45 46 52 51 47 47 47 48 49 47 43 45 52 56 60 61 63 66 70 71 68 60
15 16 17 16 14 14 14 14 15 16 16 17 17 17 17 18 20 22 21 22 21 20 23 25 24 25 24 24 23 21 20 19 18 18 15 16 17 17 20 23 23 22 22 23 22 22 26 28 28 29 26 23 23 24 25 28 32 35 35 37 40 40 43 43 43 44 43 44 46 47 47 47 46 47 48 50 48 49 52 55 60 61 61 66 70 71 72 67
16 16 17 16 15 15 16 16 16 16 16 18 19 18 18 20 21 22 23 25 23 21 26 27 24 25 24 23 23 21 21 21 19 19 17 15 17 17 20 22 23 25 24 22 24 27 31 30 28 29 27 24 23 22 21 23 30 37 36 36 37 37 39 42 44 45 43 43 43 44 48 48 49 53 54 55 56 58 56 52 55 58 59 64 68 69 73 73
16 15 15 16 16 16 17 16 16 16 17 19 20 20 21 21 21 23 23 24 24 23 26 26 25 25 24 22 23 22 24 23 20 19 17 16 17 16 21 23 21 25 25 23 26 29 30 29 29 31 30 28 25 22 22 21 26 35 34 32 35 36 37 39 43 46 43 40 40 42 45 44 50 58 57 57 60 62 60 52 50 54 56 60 64 65 69 72
15 15 15 17 16 16 16 16 17 18 18 20 21 21 22 22 22 24 24 25 26 23 23 24 24 24 23 22 21 22 25 24 22 21 18 17 17 15 22 24 20 23 24 22 26 29 27 28 30 30 30 31 28 25 25 20 22 30 27 25 30 34 36 36 41 46 42 39 41 43 43 42 49 57 54 57 61 62 62 58 54 56 58 60 60 62 65 67
16 16 17 17 17 17 17 17 18 19 19 20 22 23 23 23 24 24 28 30 26 22 23 24 23 24 23 21 21 22 25 25 24 23 19 19 19 17 22 23 20 23 23 20 27 30 25 25 28 28 29 31 30 27 25 21 22 26 22 20 25 30 34 35 38 42 39 39 42 43 42 42 49 57 55 57 62 59 59 58 56 57 60 62 60 59 61 64
18 19 19 19 19 18 19 19 18 18 20 21 23 23 23 25 26 27 31 31 25 22 23 22 22 23 22 21 21 21 24 25 24 24 23 22 21 19 21 21 19 22 20 19 25 26 21 21 23 25 26 26 25 23 23 22 23 22 18 18 21 26 31 34 36 37 37 39 38 38 41 42 49 59 59 60 61 57 56 54 51 52 54 59 59 57 59 62
20 22 22 21 21 21 21 21 20 20 21 22 22 23 25 26 29 32 31 26 24 23 23 22 21 22 22 22 21 21 24 25 25 26 26 24 23 22 23 22 21 23 21 19 21 20 18 19 19 21 22 21 20 20 22 22 22 19 18 19 21 24 29 33 36 36 36 37 34 33 37 40 46 56 60 61 61 58 56 51 47 49 51 54 56 57 58 60
22 23 22 21 22 23 23 22 20 22 22 22 23 25 29 29 30 33 28 24 25 25 23 22 21 20 21 22 22 21 24 25 25 26 26 25 24 25 26 24 23 25 23 19 18 16 17 17 16 17 19 19 19 19 20 22 22 21 21 21 22 23 26 30 34 35 34 34 32 28 30 39 49 52 54 60 61 59 58 51 45 48 51 52 53 56 57 59
23 23 22 21 22 23 24 22 22 24 23 24 25 27 32 33 31 31 26 24 27 25 23 23 21 21 21 21 22 22 23 24 24 24 25 24 24 23 26 25 23 24 24 21 18 17 17 16 15 16 17 17 18 18 19 21 21 22 23 22 22 22 24 26 28 30 30 30 29 25 28 40 51 50 49 56 59 60 60 56 48 45 49 51 51 54 56 59
22 23 22 21 21 22 23 24 25 26 26 26 27 30 34 34 31 28 26 26 26 24 23 23 22 22 22 23 22 22 24 24 23 22 22 22 22 22 24 26 25 24 24 22 19 18 18 18 17 17 17 17 17 17 19 20 20 21 23 22 21 21 21 21 22 22 23 25 25 25 28 37 46 47 46 52 57 59 61 58 50 45 48 50 50 50 52 55
22 23 23 22 21 22 23 25 26 27 27 28 29 32 34 33 31 29 28 29 27 26 25 23 23 24 24 24 23 23 24 24 23 22 22 22 22 22 21 23 26 25 24 23 21 20 19 19 18 16 17 16 16 17 17 18 19 21 21 21 22 22 20 21 21 19 18 21 22 23 32 40 45 45 45 49 54 56 55 54 51 49 49 50 50 48 47 49
23 23 24 23 22 22 23 25 26 26 27 28 30 31 31 32 32 30 29 30 30 28 27 26 26 26 26 25 26 25 24 23 22 22 23 22 21 21 19 19 23 25 25 25 24 23 21 20 19 17 17 17 16 17 17 18 20 21 20 20 22 22 22 24 24 21 17 19 20 22 33 42 44 44 44 46 51 53 52 49 49 50 51 51 51 47 45 45
23 24 24 24 23 22 22 24 26 27 28 29 30 30 31 33 34 31 30 31 31 30 29 30 29 28 28 27 27 27 24 23 23 22 23 23 22 22 21 19 19 22 25 25 25 24 23 21 20 18 18 18 17 17 17 19 20 21 20 20 21 20 22 23 24 22 17 19 23 23 29 34 35 41 45 43 47 52 49 45 45 48 50 51 52 49 47 47
23 24 24 24 24 23 22 23 25 27 30 31 31 31 33 36 35 33 33 32 32 32 32 33 31 30 30 28 28 27 25 25 25 24 24 24 24 23 22 21 20 20 22 25 26 25 23 22 20 19 19 19 18 18 20 20 20 20 21 20 21 21 22 22 24 24 17 19 26 27 30 32 32 42 49 45 46 50 48 44 43 45 49 51 53 54 52 51
22 24 24 23 24 23 22 23 25 29 32 33 33 34 36 38 37 37 36 35 35 34 34 34 33 32 31 30 30 29 28 28 26 26 26 25 25 25 23 23 22 20 20 23 24 24 24 23 21 20 20 20 20 19 21 22 20 20 21 20 21 23 23 22 22 23 18 19 29 32 32 35 36 43 49 47 46 50 50 47 43 44 47 48 51 55 56 55
22 23 23 22 23 22 22 24 27 30 33 35 35 35 36 37 38 39 38 38 39 38 38 37 36 36 35 33 33 33 32 32 30 30 29 27 28 27 25 24 24 22 20 19 21 23 24 24 22 21 20 21 22 21 21 22 21 21 21 21 21 22 24 24 22 23 20 23 32 34 33 38 39 39 45 47 46 48 51 50 46 44 44 44 47 52 55 57
22 22 22 21 23 23 23 26 28 30 32 34 34 35 34 35 36 38 39 40 41 39 39 40 39 40 39 37 37 35 36 36 35 33 33 32 32 30 28 26 26 25 23 21 20 21 24 24 23 22 21 22 23 22 21 21 21 21 20 21 21 21 23 24 23 23 21 23 33 37 37 39 38 39 44 47 46 46 50 51 51 47 43 43 47 50 53 56
23 23 20 21 22 23 24 26 27 29 32 34 34 35 35 34 33 33 35 37 38 38 38 39 40 40 41 40 39 38 39 40 40 38 36 35 33 32 30 29 27 27 25 23 21 21 23 24 24 24 23 22 22 21 22 21 21 21 21 21 21 21 22 23 25 26 21 21 29 36 39 40 38 41 46 46 45 46 48 50 52 50 45 44 48 51 54 55
23 22 20 20 20 21 24 25 26 27 30 31 33 34 35 35 34 33 32 33 34 34 34 35 36 37 38 38 38 38 39 40 41 40 38 36 34 33 31 29 28 27 26 26 24 22 22 24 25 25 24 23 22 21 21 22 21 22 22 21 20 22 22 21 26 29 25 22 23 28 37 41 40 44 46 45 46 46 46 49 49 48 47 48 50 51 53 55
21 22 21 20 20 21 23 25 26 26 26 28 29 31 33 33 33 32 31 31 32 32 32 33 33 34 34 34 36 37 38 41 41 40 38 37 35 34 32 30 29 27 26 28 27 24 24 25 25 25 24 24 24 23 22 22 22 23 23 23 21 22 22 21 24 27 27 27 24 26 36 40 40 43 45 44 46 46 46 48 46 44 45 50 51 51 52 54
22 23 22 19 19 21 22 23 25 25 26 27 27 28 28 28 28 29 28 27 27 27 29 32 33 34 33 33 35 35 36 39 40 39 38 38 36 34 32 31 30 28 28 28 26 24 25 26 26 28 27 25 27 28 26 23 22 22 23 24 23 23 22 23 25 26 28 30 29 31 40 43 41 43 44 44 46 47 46 45 44 42 42 45 50 51 51 53
23 24 24 21 18 19 20 20 23 26 26 28 27 27 28 26 24 25 24 24 24 24 26 27 30 32 33 34 36 35 36 37 37 37 38 37 37 36 34 32 31 30 30 29 26 24 24 24 26 28 30 29 31 31 28 25 23 23 23 23 23 23 24 24 26 28 30 31 32 35 41 44 43 43 43 41 41 45 46 43 41 40 39 40 44 48 51 54
21 21 23 24 21 20 20 19 21 23 23 25 26 25 26 26 25 25 24 24 24 24 25 26 27 31 33 34 34 34 35 36 37 39 38 37 36 36 35 34 32 31 29 27 25 23 25 25 24 24 24 25 26 26 24 24 25 24 23 22 22 23 25 27 28 31 31 32 34 36 38 43 44 43 43 38 35 41 44 40 38 38 37 38 40 43 48 55
21 20 20 22 22 21 21 19 18 19 19 20 21 21 23 24 24 25 24 23 23 24 27 27 26 28 30 31 34 35 35 35 37 37 37 37 36 35 35 33 31 30 27 25 23 23 26 26 23 24 23 21 21 21 21 23 24 23 23 22 22 21 24 28 28 28 30 33 36 35 39 47 47 43 44 39 35 37 38 35 35 35 34 36 37 39 44 51
20 19 18 20 19 18 19 18 18 19 19 20 20 21 23 23 21 21 21 22 21 20 24 27 24 24 25 26 31 35 35 35 36 34 33 34 33 33 34 32 30 29 26 24 22 21 25 27 23 23 25 23 21 20 21 22 23 22 22 22 21 21 22 24 25 26 28 33 36 36 41 48 45 43 46 41 34 33 33 34 35 33 34 36 35 37 41 47
20 19 18 19 17 18 18 17 17 19 19 21 23 22 23 25 24 21 21 24 24 20 20 23 22 22 23 24 27 31 30 30 32 30 28 30 29 30 31 31 29 26 24 23 21 19 25 28 22 20 24 23 20 19 20 21 21 21 22 21 20 21 20 21 23 24 26 31 37 40 44 47 41 39 46 44 38 37 35 33 35 35 35 36 36 36 39 44
18 18 19 19 18 19 19 15 15 20 21 21 23 23 23 25 24 21 21 23 25 26 23 21 21 21 22 22 24 25 25 25 27 27 26 27 28 27 27 26 25 25 24 22 20 21 26 28 21 19 22 21 19 18 18 18 18 18 19 19 19 20 22 23 23 24 27 33 38 39 44 50 45 39 46 50 48 48 45 36 36 38 37 37 37 36 38 41
18 19 19 19 19 19 19 16 16 22 23 20 20 21 23 23 22 24 26 23 22 24 24 23 25 27 27 25 22 21 21 22 22 22 22 24 24 23 24 22 21 24 25 24 22 22 25 25 22 20 21 21 19 17 17 16 15 14 16 17 18 19 22 24 24 25 28 31 36 36 41 50 49 43 46 49 47 51 52 42 36 39 40 38 37 36 37 38